QPF
0.01 0.03 0.08 0.11 0.10 0.10 0.04 0.01 0.00 0.00 0.00 0.00 0.00 0.00 0.00 0.00 0.01 0.04 0.02 0.01 0.00 0.00 0.00 0.00 0.01 0.00 0.01 0.01 0.00 0.00 0.00 0.01 0.01 0.01 0.01 0.00 0.01 0.01 0.01 0.01 0.01 0.01 0.01 0.01 0.01 0.01 0.01 0.01 0.01
0.02 0.05 0.08 0.15 0.18 0.11 0.03 0.01 0.01 0.01 0.00 0.00 0.00 0.00 0.00 0.00 0.00 0.01 0.02 0.01 0.00 0.00 0.00 0.00 0.00 0.00 0.00 0.01 0.00 0.01 0.01 0.01 0.01 0.01 0.01 0.01 0.01 0.01 0.01 0.01 0.01 0.01 0.01 0.01 0.01 0.01 0.01 0.01 0.01
0.03 0.04 0.08 0.15 0.12 0.05 0.02 0.01 0.01 0.01 0.00 0.00 0.00 0.00 0.00 0.00 0.00 0.01 0.01 0.01 0.00 0.00 0.00 0.00 0.00 0.00 0.00 0.00 0.00 0.01 0.01 0.00 0.00 0.00 0.01 0.01 0.01 0.01 0.01 0.01 0.01 0.01 0.01 0.01 0.01 0.01 0.01 0.01 0.01
0.04 0.05 0.07 0.12 0.09 0.04 0.04 0.02 0.02 0.01 0.01 0.00 0.00 0.01 0.01 0.00 0.00 0.00 0.01 0.00 0.00 0.00 0.00 0.00 0.00 0.00 0.00 0.00 0.00 0.00 0.00 0.00 0.00 0.00 0.01 0.01 0.01 0.01 0.01 0.01 0.01 0.01 0.01 0.01 0.01 0.01 0.01 0.01 0.01
0.04 0.05 0.07 0.11 0.08 0.04 0.03 0.02 0.03 0.02 0.02 0.01 0.01 0.00 0.01 0.00 0.00 0.01 0.01 0.00 0.00 0.00 0.00 0.00 0.00 0.00 0.00 0.00 0.00 0.00 0.00 0.00 0.01 0.01 0.00 0.00 0.01 0.01 0.01 0.01 0.01 0.01 0.00 0.00 0.00 0.01 0.01 0.01 0.01
0.04 0.05 0.07 0.08 0.08 0.04 0.02 0.02 0.02 0.01 0.03 0.02 0.02 0.01 0.02 0.01 0.00 0.00 0.01 0.00 0.00 0.00 0.00 0.00 0.00 0.00 0.00 0.00 0.00 0.00 0.00 0.01 0.01 0.00 0.00 0.00 0.01 0.01 0.01 0.01 0.01 0.01 0.00 0.00 0.00 0.00 0.01 0.01 0.02
0.05 0.07 0.08 0.06 0.05 0.03 0.02 0.02 0.02 0.01 0.03 0.02 0.01 0.01 0.02 0.01 0.01 0.01 0.01 0.01 0.01 0.00 0.00 0.00 0.00 0.00 0.00 0.00 0.00 0.00 0.01 0.01 0.01 0.01 0.00 0.01 0.01 0.01 0.01 0.01 0.01 0.01 0.00 0.00 0.00 0.00 0.00 0.01 0.01
0.04 0.05 0.05 0.04 0.03 0.03 0.02 0.02 0.02 0.02 0.02 0.02 0.01 0.01 0.01 0.00 0.00 0.00 0.01 0.01 0.02 0.01 0.00 0.00 0.00 0.00 0.00 0.00 0.00 0.00 0.01 0.01 0.01 0.01 0.01 0.01 0.01 0.01 0.01 0.01 0.01 0.00 0.00 0.00 0.00 0.00 0.00 0.01 0.01
0.02 0.03 0.03 0.02 0.02 0.03 0.03 0.03 0.02 0.02 0.01 0.02 0.02 0.01 0.00 0.00 0.00 0.00 0.01 0.02 0.04 0.03 0.01 0.01 0.00 0.00 0.00 0.00 0.00 0.00 0.01 0.01 0.01 0.01 0.02 0.02 0.01 0.01 0.01 0.00 0.01 0.00 0.00 0.00 0.01 0.00 0.00 0.01 0.01
0.02 0.02 0.02 0.01 0.01 0.02 0.02 0.02 0.02 0.02 0.02 0.05 0.02 0.01 0.00 0.00 0.00 0.00 0.00 0.01 0.03 0.04 0.02 0.02 0.02 0.01 0.00 0.00 0.00 0.00 0.00 0.00 0.00 0.00 0.01 0.01 0.02 0.02 0.01 0.01 0.01 0.00 0.00 0.01 0.01 0.01 0.01 0.01 0.01
0.01 0.01 0.00 0.01 0.01 0.01 0.01 0.03 0.02 0.01 0.02 0.05 0.05 0.02 0.02 0.00 0.00 0.00 0.00 0.00 0.01 0.01 0.01 0.01 0.01 0.01 0.01 0.01 0.00 0.00 0.00 0.00 0.00 0.00 0.01 0.01 0.02 0.01 0.01 0.01 0.01 0.01 0.01 0.01 0.02 0.03 0.03 0.03 0.04
0.00 0.00 0.00 0.00 0.00 0.00 0.01 0.01 0.01 0.01 0.01 0.01 0.03 0.01 0.01 0.00 0.00 0.00 0.00 0.00 0.00 0.01 0.01 0.01 0.01 0.01 0.03 0.03 0.01 0.00 0.00 0.00 0.00 0.00 0.01 0.02 0.03 0.02 0.01 0.01 0.01 0.01 0.01 0.03 0.03 0.03 0.03 0.04 0.04
0.00 0.00 0.00 0.00 0.00 0.00 0.00 0.01 0.00 0.00 0.01 0.01 0.01 0.01 0.00 0.00 0.00 0.00 0.01 0.00 0.01 0.01 0.01 0.01 0.01 0.01 0.02 0.04 0.04 0.02 0.01 0.01 0.01 0.01 0.01 0.02 0.03 0.03 0.02 0.01 0.02 0.02 0.01 0.02 0.04 0.04 0.04 0.04 0.03
0.00 0.00 0.00 0.00 0.00 0.00 0.00 0.00 0.01 0.01 0.01 0.01 0.01 0.01 0.00 0.01 0.01 0.01 0.00 0.00 0.00 0.00 0.00 0.01 0.01 0.01 0.02 0.04 0.05 0.04 0.03 0.02 0.02 0.02 0.02 0.02 0.05 0.03 0.02 0.02 0.05 0.03 0.02 0.02 0.04 0.05 0.04 0.04 0.03
0.00 0.00 0.00 0.00 0.00 0.00 0.00 0.00 0.00 0.01 0.01 0.05 0.03 0.02 0.02 0.02 0.04 0.03 0.01 0.01 0.01 0.01 0.01 0.01 0.01 0.01 0.04 0.07 0.06 0.05 0.05 0.04 0.03 0.03 0.03 0.04 0.06 0.03 0.02 0.02 0.03 0.03 0.02 0.03 0.04 0.04 0.04 0.04 0.03
0.00 0.00 0.00 0.00 0.00 0.00 0.00 0.00 0.00 0.01 0.02 0.05 0.04 0.02 0.03 0.04 0.07 0.05 0.03 0.01 0.01 0.01 0.01 0.01 0.01 0.02 0.03 0.05 0.05 0.06 0.07 0.05 0.04 0.05 0.06 0.05 0.04 0.02 0.01 0.01 0.02 0.02 0.03 0.02 0.03 0.03 0.05 0.07 0.06
0.00 0.00 0.00 0.00 0.00 0.00 0.00 0.00 0.00 0.01 0.02 0.04 0.02 0.02 0.01 0.01 0.02 0.03 0.02 0.02 0.01 0.01 0.01 0.01 0.02 0.02 0.03 0.04 0.05 0.08 0.09 0.06 0.06 0.08 0.09 0.05 0.03 0.02 0.01 0.01 0.02 0.01 0.02 0.02 0.02 0.02 0.03 0.04 0.04
0.00 0.00 0.00 0.00 0.00 0.00 0.00 0.00 0.00 0.01 0.01 0.01 0.02 0.02 0.02 0.03 0.02 0.02 0.02 0.02 0.02 0.02 0.02 0.02 0.02 0.02 0.02 0.05 0.05 0.05 0.07 0.07 0.08 0.10 0.13 0.08 0.04 0.03 0.03 0.02 0.03 0.03 0.03 0.02 0.02 0.03 0.04 0.04 0.04
0.00 0.00 0.00 0.00 0.00 0.00 0.00 0.00 0.00 0.01 0.01 0.01 0.02 0.02 0.05 0.07 0.04 0.04 0.03 0.03 0.03 0.03 0.02 0.03 0.03 0.03 0.04 0.05 0.06 0.07 0.05 0.05 0.06 0.07 0.15 0.14 0.08 0.06 0.06 0.03 0.03 0.04 0.03 0.02 0.02 0.03 0.03 0.04 0.05
0.00 0.00 0.00 0.00 0.00 0.00 0.00 0.00 0.00 0.01 0.01 0.03 0.04 0.03 0.05 0.07 0.07 0.10 0.10 0.06 0.03 0.03 0.03 0.04 0.04 0.05 0.05 0.06 0.08 0.09 0.08 0.08 0.10 0.10 0.13 0.16 0.13 0.10 0.08 0.05 0.03 0.03 0.04 0.03 0.03 0.03 0.03 0.04 0.03
0.00 0.00 0.00 0.00 0.00 0.00 0.00 0.00 0.00 0.00 0.01 0.02 0.03 0.03 0.04 0.04 0.05 0.05 0.07 0.06 0.05 0.04 0.03 0.03 0.04 0.04 0.05 0.07 0.09 0.11 0.11 0.10 0.11 0.11 0.12 0.15 0.17 0.15 0.11 0.06 0.05 0.04 0.03 0.03 0.04 0.03 0.03 0.05 0.04
0.00 0.00 0.00 0.00 0.00 0.00 0.00 0.00 0.00 0.01 0.01 0.02 0.03 0.05 0.06 0.10 0.09 0.04 0.02 0.03 0.03 0.03 0.03 0.04 0.04 0.05 0.06 0.06 0.07 0.10 0.11 0.10 0.10 0.13 0.15 0.14 0.17 0.17 0.14 0.10 0.06 0.04 0.04 0.04 0.03 0.04 0.05 0.05 0.04
0.00 0.00 0.00 0.00 0.00 0.00 0.00 0.00 0.00 0.01 0.02 0.08 0.08 0.06 0.05 0.10 0.14 0.08 0.04 0.04 0.04 0.03 0.03 0.04 0.06 0.08 0.08 0.07 0.08 0.11 0.12 0.13 0.14 0.13 0.13 0.14 0.17 0.16 0.14 0.12 0.08 0.05 0.05 0.04 0.04 0.05 0.04 0.03 0.03
0.00 0.00 0.00 0.00 0.00 0.00 0.00 0.00 0.01 0.04 0.07 0.13 0.13 0.08 0.05 0.06 0.10 0.07 0.06 0.05 0.05 0.04 0.04 0.05 0.07 0.08 0.09 0.12 0.15 0.15 0.14 0.12 0.12 0.15 0.16 0.15 0.17 0.18 0.15 0.12 0.11 0.09 0.07 0.06 0.06 0.06 0.04 0.03 0.03
0.00 0.00 0.00 0.00 0.00 0.00 0.00 0.01 0.03 0.09 0.07 0.08 0.06 0.05 0.09 0.05 0.05 0.05 0.05 0.06 0.05 0.04 0.04 0.05 0.07 0.07 0.09 0.11 0.15 0.17 0.14 0.12 0.12 0.12 0.12 0.14 0.16 0.15 0.12 0.11 0.13 0.12 0.10 0.09 0.08 0.08 0.06 0.04 0.03
0.00 0.00 0.00 0.00 0.00 0.01 0.01 0.04 0.06 0.05 0.05 0.04 0.04 0.04 0.06 0.05 0.03 0.03 0.03 0.04 0.04 0.03 0.03 0.04 0.06 0.07 0.06 0.08 0.11 0.14 0.13 0.13 0.13 0.16 0.15 0.13 0.10 0.11 0.12 0.14 0.14 0.12 0.10 0.09 0.08 0.07 0.06 0.06 0.05
0.00 0.00 0.00 0.01 0.02 0.02 0.02 0.05 0.08 0.09 0.11 0.08 0.07 0.06 0.06 0.06 0.04 0.03 0.03 0.03 0.03 0.03 0.04 0.05 0.05 0.05 0.05 0.08 0.10 0.13 0.13 0.11 0.12 0.15 0.17 0.15 0.13 0.15 0.16 0.15 0.16 0.16 0.14 0.11 0.10 0.09 0.07 0.06 0.06
0.00 0.00 0.00 0.01 0.02 0.01 0.03 0.05 0.08 0.11 0.16 0.16 0.13 0.09 0.08 0.07 0.06 0.04 0.03 0.03 0.03 0.03 0.04 0.05 0.05 0.05 0.05 0.07 0.14 0.13 0.11 0.11 0.12 0.12 0.11 0.13 0.14 0.14 0.16 0.14 0.15 0.18 0.18 0.15 0.14 0.12 0.10 0.09 0.08
0.00 0.00 0.00 0.01 0.01 0.00 0.02 0.05 0.08 0.14 0.19 0.16 0.13 0.10 0.08 0.07 0.08 0.08 0.05 0.03 0.05 0.04 0.04 0.05 0.05 0.05 0.05 0.06 0.07 0.07 0.06 0.08 0.11 0.12 0.11 0.12 0.13 0.12 0.12 0.13 0.17 0.20 0.24 0.24 0.22 0.18 0.14 0.12 0.11
0.00 0.00 0.00 0.00 0.01 0.01 0.01 0.03 0.05 0.11 0.18 0.20 0.10 0.07 0.06 0.05 0.07 0.07 0.04 0.04 0.04 0.04 0.03 0.04 0.05 0.05 0.05 0.05 0.05 0.05 0.05 0.08 0.09 0.10 0.11 0.11 0.12 0.12 0.12 0.12 0.15 0.17 0.22 0.24 0.23 0.19 0.16 0.14 0.12
MSLP
1008.80 1009.76 1010.90 1012.02 1012.91 1013.45 1013.54 1013.24 1012.65 1011.94 1011.32 1010.93 1010.85 1011.10 1011.58 1012.18 1012.74 1013.14 1013.33 1013.31 1013.14 1012.92 1012.76 1012.71 1012.83 1013.09 1013.42 1013.77 1014.04 1014.21 1014.26 1014.23 1014.17 1014.14 1014.19 1014.33 1014.54 1014.81 1015.08 1015.30 1015.45 1015.53 1015.57 1015.58 1015.60 1015.66 1015.76 1015.89 1016.04
1009.29 1010.46 1011.72 1012.88 1013.72 1014.14 1014.08 1013.59 1012.83 1011.96 1011.21 1010.71 1010.55 1010.72 1011.14 1011.69 1012.22 1012.63 1012.86 1012.90 1012.82 1012.71 1012.64 1012.69 1012.88 1013.18 1013.54 1013.88 1014.15 1014.32 1014.37 1014.36 1014.33 1014.32 1014.39 1014.53 1014.75 1014.99 1015.24 1015.44 1015.58 1015.67 1015.72 1015.75 1015.80 1015.89 1016.02 1016.16 1016.32
1010.01 1011.32 1012.64 1013.77 1014.52 1014.80 1014.58 1013.94 1013.04 1012.07 1011.23 1010.66 1010.43 1010.54 1010.89 1011.38 1011.86 1012.25 1012.48 1012.57 1012.57 1012.54 1012.57 1012.71 1012.95 1013.29 1013.66 1014.00 1014.26 1014.43 1014.50 1014.51 1014.50 1014.52 1014.59 1014.73 1014.92 1015.14 1015.34 1015.52 1015.64 1015.73 1015.80 1015.88 1015.97 1016.10 1016.25 1016.41 1016.57
1010.85 1012.22 1013.53 1014.56 1015.18 1015.30 1014.94 1014.19 1013.21 1012.20 1011.34 1010.75 1010.49 1010.54 1010.84 1011.25 1011.67 1012.03 1012.26 1012.38 1012.44 1012.50 1012.61 1012.80 1013.09 1013.45 1013.81 1014.14 1014.39 1014.54 1014.63 1014.66 1014.67 1014.71 1014.80 1014.93 1015.09 1015.27 1015.44 1015.58 1015.69 1015.79 1015.89 1016.01 1016.15 1016.32 1016.50 1016.68 1016.84
1011.67 1013.01 1014.21 1015.09 1015.55 1015.52 1015.05 1014.24 1013.26 1012.28 1011.46 1010.91 1010.66 1010.69 1010.93 1011.28 1011.66 1011.97 1012.20 1012.36 1012.48 1012.61 1012.78 1013.03 1013.34 1013.68 1014.01 1014.29 1014.51 1014.66 1014.74 1014.79 1014.84 1014.91 1015.01 1015.14 1015.28 1015.43 1015.56 1015.68 1015.78 1015.90 1016.03 1016.18 1016.37 1016.58 1016.78 1016.97 1017.13
1012.32 1013.54 1014.56 1015.24 1015.51 1015.35 1014.81 1014.01 1013.09 1012.22 1011.51 1011.05 1010.86 1010.90 1011.12 1011.43 1011.76 1012.05 1012.29 1012.49 1012.67 1012.87 1013.10 1013.37 1013.68 1013.98 1014.25 1014.47 1014.64 1014.75 1014.83 1014.90 1014.98 1015.09 1015.22 1015.36 1015.51 1015.64 1015.75 1015.85 1015.95 1016.07 1016.23 1016.42 1016.64 1016.87 1017.09 1017.28 1017.44
1012.66 1013.68 1014.47 1014.93 1015.02 1014.75 1014.20 1013.46 1012.68 1011.97 1011.43 1011.11 1011.01 1011.10 1011.32 1011.61 1011.91 1012.20 1012.46 1012.71 1012.96 1013.22 1013.51 1013.79 1014.08 1014.32 1014.52 1014.66 1014.76 1014.83 1014.89 1014.98 1015.10 1015.26 1015.43 1015.61 1015.77 1015.90 1016.01 1016.09 1016.20 1016.32 1016.49 1016.70 1016.93 1017.17 1017.40 1017.58 1017.73
1012.67 1013.44 1013.97 1014.19 1014.11 1013.77 1013.24 1012.62 1012.02 1011.53 1011.19 1011.04 1011.06 1011.21 1011.44 1011.72 1012.02 1012.32 1012.62 1012.93 1013.25 1013.58 1013.91 1014.22 1014.47 1014.66 1014.77 1014.83 1014.85 1014.88 1014.93 1015.04 1015.21 1015.42 1015.65 1015.87 1016.06 1016.20 1016.31 1016.39 1016.48 1016.60 1016.77 1016.98 1017.21 1017.45 1017.66 1017.83 1017.96
1012.37 1012.87 1013.13 1013.13 1012.91 1012.52 1012.04 1011.58 1011.18 1010.91 1010.80 1010.82 1010.96 1011.17 1011.43 1011.71 1012.01 1012.32 1012.66 1013.04 1013.43 1013.84 1014.22 1014.54 1014.78 1014.92 1014.97 1014.96 1014.92 1014.91 1014.96 1015.09 1015.30 1015.57 1015.86 1016.13 1016.35 1016.51 1016.62 1016.70 1016.78 1016.88 1017.03 1017.22 1017.44 1017.66 1017.85 1018.01 1018.12
1011.88 1012.12 1012.13 1011.93 1011.59 1011.17 1010.78 1010.46 1010.26 1010.21 1010.29 1010.47 1010.71 1010.98 1011.25 1011.53 1011.82 1012.15 1012.53 1012.96 1013.43 1013.91 1014.34 1014.70 1014.94 1015.06 1015.07 1015.02 1014.95 1014.91 1014.97 1015.12 1015.38 1015.70 1016.04 1016.35 1016.61 1016.79 1016.91 1016.98 1017.04 1017.12 1017.24 1017.40 1017.59 1017.78 1017.96 1018.11 1018.22
1011.37 1011.38 1011.17 1010.80 1010.36 1009.93 1009.60 1009.41 1009.39 1009.52 1009.76 1010.06 1010.37 1010.66 1010.93 1011.19 1011.47 1011.79 1012.20 1012.67 1013.20 1013.74 1014.23 1014.64 1014.91 1015.03 1015.05 1014.99 1014.92 1014.90 1014.97 1015.15 1015.44 1015.80 1016.18 1016.53 1016.81 1017.01 1017.13 1017.19 1017.23 1017.29 1017.38 1017.51 1017.67 1017.84 1018.01 1018.15 1018.26
1011.02 1010.83 1010.44 1009.93 1009.40 1008.97 1008.68 1008.59 1008.69 1008.94 1009.28 1009.65 1009.99 1010.28 1010.53 1010.75 1010.99 1011.30 1011.70 1012.20 1012.76 1013.35 1013.90 1014.36 1014.67 1014.85 1014.91 1014.88 1014.84 1014.85 1014.96 1015.17 1015.49 1015.87 1016.27 1016.64 1016.93 1017.15 1017.27 1017.33 1017.36 1017.40 1017.47 1017.58 1017.72 1017.87 1018.03 1018.18 1018.30
1010.93 1010.59 1010.06 1009.43 1008.84 1008.39 1008.13 1008.09 1008.25 1008.57 1008.95 1009.33 1009.66 1009.92 1010.12 1010.29 1010.48 1010.75 1011.13 1011.62 1012.20 1012.81 1013.40 1013.91 1014.29 1014.53 1014.66 1014.71 1014.73 1014.80 1014.94 1015.18 1015.51 1015.90 1016.30 1016.67 1016.97 1017.19 1017.32 1017.39 1017.43 1017.47 1017.53 1017.62 1017.75 1017.91 1018.07 1018.23 1018.38
1011.16 1010.71 1010.07 1009.36 1008.72 1008.24 1007.97 1007.94 1008.12 1008.43 1008.81 1009.17 1009.46 1009.67 1009.81 1009.92 1010.06 1010.28 1010.61 1011.06 1011.61 1012.22 1012.83 1013.38 1013.82 1014.14 1014.36 1014.49 1014.60 1014.73 1014.91 1015.17 1015.50 1015.88 1016.26 1016.62 1016.92 1017.14 1017.29 1017.39 1017.45 1017.51 1017.58 1017.68 1017.82 1017.98 1018.16 1018.34 1018.52
1011.62 1011.10 1010.39 1009.64 1008.96 1008.46 1008.17 1008.12 1008.27 1008.54 1008.87 1009.17 1009.41 1009.57 1009.66 1009.72 1009.80 1009.96 1010.24 1010.64 1011.14 1011.71 1012.30 1012.87 1013.35 1013.74 1014.05 1014.28 1014.47 1014.66 1014.88 1015.15 1015.46 1015.81 1016.16 1016.49 1016.78 1017.01 1017.19 1017.33 1017.43 1017.53 1017.64 1017.77 1017.92 1018.10 1018.30 1018.51 1018.71
1012.19 1011.62 1010.89 1010.12 1009.45 1008.93 1008.64 1008.55 1008.64 1008.85 1009.10 1009.34 1009.52 1009.62 1009.67 1009.70 1009.76 1009.88 1010.09 1010.43 1010.86 1011.37 1011.92 1012.46 1012.97 1013.41 1013.78 1014.09 1014.36 1014.60 1014.85 1015.11 1015.39 1015.69 1015.99 1016.29 1016.56 1016.80 1017.02 1017.20 1017.37 1017.53 1017.69 1017.86 1018.05 1018.25 1018.47 1018.70 1018.92
1012.68 1012.10 1011.40 1010.68 1010.04 1009.57 1009.27 1009.15 1009.17 1009.30 1009.46 1009.61 1009.73 1009.80 1009.84 1009.86 1009.90 1010.01 1010.18 1010.45 1010.81 1011.24 1011.71 1012.21 1012.70 1013.16 1013.58 1013.95 1014.27 1014.55 1014.82 1015.06 1015.30 1015.53 1015.78 1016.03 1016.28 1016.53 1016.78 1017.03 1017.26 1017.48 1017.71 1017.93 1018.15 1018.38 1018.62 1018.87 1019.11
1012.97 1012.43 1011.81 1011.20 1010.66 1010.26 1009.98 1009.84 1009.80 1009.82 1009.88 1009.94 1009.99 1010.03 1010.07 1010.11 1010.18 1010.29 1010.45 1010.68 1010.96 1011.30 1011.69 1012.12 1012.57 1013.01 1013.45 1013.85 1014.21 1014.52 1014.78 1015.00 1015.19 1015.36 1015.54 1015.74 1015.96 1016.21 1016.49 1016.79 1017.09 1017.38 1017.66 1017.93 1018.19 1018.44 1018.71 1018.97 1019.23
1012.97 1012.53 1012.06 1011.63 1011.26 1010.97 1010.76 1010.60 1010.48 1010.40 1010.32 1010.27 1010.24 1010.25 1010.29 1010.37 1010.49 1010.64 1010.82 1011.02 1011.25 1011.51 1011.81 1012.15 1012.54 1012.95 1013.38 1013.79 1014.17 1014.49 1014.75 1014.94 1015.08 1015.19 1015.30 1015.44 1015.63 1015.87 1016.16 1016.50 1016.85 1017.20 1017.53 1017.84 1018.12 1018.40 1018.67 1018.95 1019.23
1012.71 1012.43 1012.20 1012.01 1011.86 1011.74 1011.60 1011.44 1011.23 1011.00 1010.77 1010.57 1010.44 1010.39 1010.43 1010.55 1010.74 1010.95 1011.17 1011.38 1011.58 1011.78 1012.00 1012.25 1012.57 1012.93 1013.33 1013.74 1014.13 1014.47 1014.72 1014.89 1014.99 1015.05 1015.09 1015.18 1015.32 1015.53 1015.83 1016.18 1016.56 1016.94 1017.31 1017.64 1017.95 1018.24 1018.52 1018.81 1019.11
1012.29 1012.25 1012.30 1012.42 1012.54 1012.61 1012.57 1012.38 1012.07 1011.66 1011.23 1010.84 1010.57 1010.43 1010.45 1010.61 1010.86 1011.15 1011.44 1011.68 1011.87 1012.03 1012.18 1012.35 1012.59 1012.91 1013.28 1013.68 1014.08 1014.42 1014.69 1014.85 1014.93 1014.94 1014.94 1014.96 1015.05 1015.23 1015.51 1015.85 1016.24 1016.64 1017.02 1017.36 1017.67 1017.96 1018.24 1018.54 1018.85
1011.86 1012.11 1012.51 1012.96 1013.37 1013.63 1013.67 1013.45 1013.00 1012.39 1011.72 1011.11 1010.64 1010.39 1010.36 1010.53 1010.84 1011.22 1011.57 1011.86 1012.06 1012.20 1012.30 1012.41 1012.58 1012.84 1013.18 1013.58 1013.98 1014.35 1014.63 1014.81 1014.88 1014.87 1014.83 1014.81 1014.85 1014.99 1015.22 1015.54 1015.91 1016.30 1016.68 1017.03 1017.33 1017.61 1017.89 1018.18 1018.50
1011.56 1012.14 1012.89 1013.68 1014.37 1014.81 1014.91 1014.63 1014.02 1013.17 1012.24 1011.38 1010.70 1010.30 1010.21 1010.37 1010.72 1011.16 1011.58 1011.92 1012.15 1012.27 1012.33 1012.39 1012.50 1012.71 1013.02 1013.41 1013.82 1014.22 1014.53 1014.74 1014.83 1014.82 1014.76 1014.70 1014.70 1014.78 1014.97 1015.26 1015.60 1015.97 1016.33 1016.66 1016.96 1017.23 1017.49 1017.77 1018.08
1011.46 1012.36 1013.45 1014.55 1015.47 1016.05 1016.18 1015.83 1015.04 1013.96 1012.77 1011.66 1010.78 1010.23 1010.04 1010.18 1010.55 1011.04 1011.52 1011.91 1012.15 1012.27 1012.29 1012.30 1012.36 1012.51 1012.79 1013.16 1013.59 1014.01 1014.37 1014.61 1014.72 1014.72 1014.66 1014.59 1014.55 1014.60 1014.74 1014.99 1015.30 1015.64 1015.98 1016.30 1016.58 1016.83 1017.07 1017.33 1017.63
1011.55 1012.74 1014.11 1015.46 1016.56 1017.23 1017.35 1016.90 1015.96 1014.67 1013.26 1011.93 1010.86 1010.18 1009.92 1010.03 1010.41 1010.93 1011.44 1011.86 1012.11 1012.21 1012.20 1012.16 1012.16 1012.26 1012.50 1012.85 1013.28 1013.72 1014.10 1014.38 1014.53 1014.56 1014.50 1014.42 1014.37 1014.38 1014.49 1014.70 1014.98 1015.30 1015.62 1015.92 1016.19 1016.42 1016.64 1016.88 1017.14
1011.76 1013.16 1014.73 1016.23 1017.43 1018.13 1018.22 1017.68 1016.61 1015.17 1013.60 1012.14 1010.95 1010.19 1009.87 1009.96 1010.34 1010.87 1011.40 1011.82 1012.07 1012.14 1012.09 1011.99 1011.93 1011.98 1012.16 1012.48 1012.90 1013.34 1013.73 1014.04 1014.21 1014.27 1014.23 1014.15 1014.09 1014.09 1014.18 1014.36 1014.62 1014.92 1015.22 1015.51 1015.76 1015.98 1016.18 1016.39 1016.62
1011.95 1013.47 1015.14 1016.69 1017.90 1018.58 1018.62 1018.02 1016.87 1015.36 1013.73 1012.22 1011.01 1010.22 1009.90 1009.98 1010.37 1010.90 1011.42 1011.83 1012.05 1012.09 1011.99 1011.83 1011.71 1011.70 1011.83 1012.10 1012.47 1012.89 1013.28 1013.59 1013.77 1013.84 1013.82 1013.74 1013.68 1013.68 1013.76 1013.92 1014.16 1014.45 1014.75 1015.03 1015.27 1015.47 1015.65 1015.83 1016.03
1012.00 1013.55 1015.19 1016.69 1017.83 1018.44 1018.42 1017.78 1016.64 1015.15 1013.57 1012.12 1010.98 1010.26 1009.98 1010.09 1010.48 1011.00 1011.50 1011.87 1012.05 1012.05 1011.91 1011.70 1011.52 1011.45 1011.52 1011.73 1012.05 1012.42 1012.78 1013.06 1013.23 1013.30 1013.28 1013.21 1013.15 1013.15 1013.22 1013.38 1013.60 1013.88 1014.17 1014.43 1014.66 1014.85 1015.01 1015.17 1015.34
1011.85 1013.30 1014.82 1016.17 1017.17 1017.67 1017.59 1016.97 1015.89 1014.53 1013.11 1011.83 1010.85 1010.26 1010.08 1010.24 1010.65 1011.15 1011.61 1011.93 1012.07 1012.02 1011.84 1011.60 1011.38 1011.26 1011.28 1011.43 1011.69 1011.99 1012.29 1012.52 1012.66 1012.70 1012.67 1012.60 1012.54 1012.53 1012.59 1012.74 1012.95 1013.21 1013.47 1013.72 1013.93 1014.10 1014.24 1014.38 1014.53
1011.49 1012.77 1014.06 1015.19 1016.00 1016.37 1016.25 1015.67 1014.73 1013.58 1012.41 1011.38 1010.64 1010.23 1010.18 1010.41 1010.83 1011.30 1011.72 1011.99 1012.08 1011.99 1011.79 1011.53 1011.30 1011.16 1011.15 1011.24 1011.44 1011.67 1011.90 1012.06 1012.15 1012.15 1012.09 1012.00 1011.92 1011.90 1011.95 1012.07 1012.26 1012.47 1012.70 1012.91 1013.09 1013.23 1013.35 1013.47 1013.62
Thickness
5841 5841 5838 5826 5802 5781 5779 5796 5810 5811 5812 5822 5826 5819 5808 5798 5788 5774 5796 5802 5798 5793 5790 5787 5785 5784 5782 5781 5780 5779 5778 5777 5776 5775 5773 5772 5770 5769 5767 5766 5764 5763 5762 5761 5759 5758 5757 5756 5755
5844 5842 5830 5812 5783 5762 5776 5800 5806 5812 5820 5827 5825 5819 5808 5799 5803 5797 5798 5799 5798 5794 5790 5787 5785 5784 5782 5781 5779 5778 5777 5776 5775 5774 5772 5771 5769 5768 5766 5765 5763 5762 5760 5759 5758 5757 5756 5755 5753
5845 5841 5816 5796 5778 5768 5779 5802 5808 5819 5829 5829 5820 5819 5810 5801 5803 5800 5801 5800 5796 5792 5789 5787 5785 5783 5782 5780 5779 5777 5776 5775 5774 5773 5771 5770 5769 5767 5766 5764 5762 5761 5759 5758 5757 5756 5754 5753 5752
5841 5825 5810 5787 5778 5793 5798 5810 5819 5819 5823 5826 5820 5809 5811 5816 5812 5806 5803 5800 5795 5791 5788 5786 5784 5782 5781 5779 5778 5777 5776 5775 5773 5772 5771 5770 5768 5767 5765 5763 5761 5760 5758 5757 5756 5754 5753 5752 5751
5836 5813 5791 5778 5788 5806 5816 5822 5824 5817 5816 5818 5818 5801 5799 5812 5815 5808 5803 5798 5794 5790 5788 5786 5784 5782 5780 5778 5777 5776 5775 5774 5773 5772 5770 5769 5768 5766 5764 5762 5760 5759 5757 5756 5755 5753 5752 5751 5750
5819 5804 5779 5773 5794 5811 5821 5828 5824 5818 5814 5816 5813 5800 5795 5808 5809 5804 5802 5797 5794 5791 5788 5785 5783 5781 5779 5777 5776 5775 5774 5773 5772 5771 5769 5768 5767 5765 5763 5761 5760 5758 5756 5755 5754 5753 5751 5750 5749
5812 5796 5782 5786 5796 5805 5820 5831 5824 5818 5815 5817 5818 5799 5795 5802 5808 5806 5801 5797 5793 5790 5787 5784 5782 5780 5778 5777 5775 5774 5773 5772 5770 5769 5768 5767 5765 5764 5762 5760 5758 5757 5755 5754 5753 5752 5751 5749 5748
5826 5801 5788 5790 5797 5805 5827 5833 5831 5826 5820 5829 5825 5803 5795 5804 5809 5805 5799 5794 5790 5788 5786 5783 5781 5779 5778 5776 5774 5773 5772 5770 5769 5768 5767 5765 5764 5762 5761 5759 5757 5756 5754 5753 5752 5751 5750 5749 5748
5834 5794 5782 5796 5804 5811 5831 5829 5830 5838 5832 5829 5829 5823 5819 5817 5811 5801 5793 5788 5786 5785 5784 5782 5780 5778 5776 5775 5773 5772 5771 5769 5768 5767 5766 5764 5763 5761 5760 5758 5756 5755 5754 5753 5752 5751 5750 5749 5748
5820 5792 5802 5823 5828 5826 5834 5832 5829 5824 5821 5819 5821 5823 5822 5817 5808 5799 5791 5786 5784 5783 5782 5782 5780 5777 5776 5775 5773 5771 5770 5768 5767 5766 5764 5763 5761 5760 5758 5757 5755 5754 5753 5752 5752 5751 5750 5749 5748
5824 5813 5827 5837 5843 5841 5835 5834 5836 5822 5811 5819 5818 5817 5817 5813 5807 5801 5795 5792 5790 5787 5785 5783 5780 5778 5776 5774 5772 5770 5769 5767 5766 5764 5763 5762 5760 5758 5757 5756 5755 5753 5752 5751 5751 5750 5750 5749 5748
5829 5834 5842 5844 5849 5844 5839 5836 5832 5828 5828 5838 5836 5829 5821 5813 5808 5804 5799 5796 5793 5789 5787 5785 5782 5779 5776 5774 5772 5770 5768 5766 5765 5764 5762 5761 5759 5758 5756 5755 5754 5753 5752 5751 5750 5750 5749 5749 5748
5829 5833 5846 5852 5851 5850 5845 5837 5834 5832 5840 5838 5834 5828 5821 5815 5811 5809 5807 5802 5796 5792 5790 5788 5784 5781 5778 5775 5772 5770 5768 5766 5765 5763 5762 5761 5759 5758 5756 5755 5754 5753 5751 5751 5750 5750 5750 5749 5748
5832 5836 5841 5847 5848 5849 5841 5836 5832 5830 5839 5833 5826 5821 5820 5817 5813 5809 5805 5801 5798 5795 5793 5790 5786 5783 5780 5776 5773 5771 5769 5767 5765 5764 5763 5762 5760 5759 5757 5755 5753 5753 5752 5751 5750 5750 5749 5749 5748
5837 5828 5831 5841 5845 5847 5840 5821 5826 5834 5834 5825 5822 5820 5819 5817 5815 5811 5808 5805 5802 5798 5796 5792 5788 5784 5781 5777 5774 5772 5770 5768 5766 5765 5764 5762 5761 5759 5757 5755 5754 5753 5752 5751 5750 5749 5748 5748 5748
5824 5813 5805 5828 5840 5844 5827 5801 5824 5834 5829 5820 5820 5819 5817 5816 5816 5815 5811 5808 5805 5801 5796 5793 5791 5785 5781 5778 5776 5773 5771 5768 5766 5765 5764 5763 5761 5759 5757 5755 5754 5754 5752 5751 5750 5749 5747 5747 5747
5797 5789 5795 5814 5837 5838 5824 5807 5823 5832 5827 5819 5818 5819 5816 5814 5814 5815 5813 5809 5806 5803 5798 5793 5790 5785 5782 5779 5776 5774 5771 5768 5766 5765 5764 5762 5760 5759 5757 5756 5755 5753 5752 5751 5750 5749 5747 5745 5745
5779 5787 5793 5802 5828 5830 5818 5814 5822 5829 5826 5821 5820 5818 5815 5813 5815 5817 5814 5810 5806 5804 5799 5794 5790 5785 5781 5778 5774 5771 5769 5767 5765 5764 5763 5761 5759 5758 5757 5756 5754 5753 5751 5750 5749 5748 5747 5746 5745
5794 5790 5789 5806 5830 5824 5815 5815 5819 5824 5822 5818 5817 5815 5814 5814 5816 5817 5814 5810 5806 5801 5797 5793 5788 5784 5780 5775 5770 5766 5764 5763 5762 5762 5761 5760 5758 5757 5756 5755 5754 5752 5750 5749 5749 5747 5745 5744 5745
5794 5786 5790 5806 5827 5823 5814 5813 5820 5822 5821 5822 5820 5817 5815 5811 5810 5811 5811 5809 5805 5800 5796 5792 5788 5784 5781 5777 5773 5768 5765 5762 5761 5760 5760 5758 5756 5755 5755 5754 5753 5752 5750 5748 5748 5747 5744 5743 5744
5791 5788 5793 5798 5813 5820 5811 5799 5805 5816 5822 5822 5821 5819 5817 5814 5811 5811 5810 5807 5803 5799 5796 5793 5788 5785 5781 5776 5771 5766 5762 5759 5757 5756 5756 5756 5755 5755 5755 5754 5753 5751 5750 5748 5747 5746 5744 5740 5741
5780 5805 5807 5804 5792 5780 5793 5764 5788 5801 5807 5812 5815 5815 5814 5814 5812 5812 5810 5807 5804 5801 5798 5793 5788 5784 5779 5775 5769 5764 5758 5754 5755 5755 5755 5755 5755 5754 5754 5753 5752 5751 5750 5748 5748 5747 5745 5742 5738
5795 5813 5808 5803 5790 5775 5778 5763 5772 5792 5792 5801 5810 5814 5814 5815 5812 5810 5810 5808 5805 5801 5797 5792 5787 5782 5778 5774 5769 5764 5759 5757 5755 5754 5754 5753 5753 5753 5753 5752 5751 5750 5749 5748 5748 5747 5745 5743 5740
5811 5803 5793 5778 5764 5748 5766 5760 5760 5779 5791 5801 5808 5812 5812 5813 5812 5810 5809 5806 5802 5798 5794 5789 5784 5779 5776 5772 5768 5764 5759 5756 5753 5752 5752 5751 5751 5752 5751 5751 5750 5750 5749 5748 5747 5747 5746 5744 5742
5799 5765 5739 5739 5727 5735 5762 5760 5761 5793 5804 5808 5808 5809 5810 5810 5808 5805 5802 5800 5797 5794 5790 5786 5781 5776 5774 5770 5767 5764 5761 5758 5755 5753 5752 5750 5750 5750 5750 5751 5750 5749 5749 5748 5747 5746 5744 5744 5742
5783 5766 5733 5723 5721 5733 5756 5752 5771 5799 5808 5812 5811 5809 5806 5804 5805 5803 5801 5798 5795 5792 5788 5784 5779 5775 5772 5769 5766 5764 5762 5759 5757 5755 5753 5752 5751 5751 5751 5750 5750 5749 5748 5748 5747 5745 5744 5743 5741
5779 5766 5766 5741 5736 5730 5736 5756 5776 5795 5798 5801 5801 5801 5799 5800 5800 5798 5797 5795 5792 5789 5786 5782 5777 5773 5770 5768 5764 5762 5761 5759 5757 5756 5755 5753 5752 5751 5750 5749 5748 5748 5747 5747 5745 5743 5742 5741 5740
5794 5780 5751 5735 5720 5715 5732 5743 5751 5772 5780 5789 5791 5792 5794 5795 5794 5794 5793 5791 5789 5787 5784 5780 5775 5771 5768 5765 5763 5761 5759 5758 5757 5755 5753 5752 5751 5750 5749 5748 5747 5746 5745 5744 5743 5741 5741 5739 5738
5781 5773 5757 5737 5731 5718 5715 5735 5775 5776 5781 5783 5787 5790 5790 5789 5790 5789 5788 5787 5785 5783 5779 5775 5771 5768 5765 5763 5761 5759 5757 5756 5754 5753 5752 5751 5750 5748 5746 5746 5745 5743 5742 5741 5739 5738 5737 5735 5734
5787 5774 5756 5736 5731 5728 5722 5738 5786 5783 5784 5784 5785 5787 5789 5789 5788 5786 5784 5782 5780 5777 5775 5771 5768 5765 5763 5762 5759 5756 5754 5752 5752 5750 5750 5749 5747 5745 5744 5743 5742 5740 5739 5738 5736 5734 5733 5732 5730